Location: Hannover
(52.3723°N, 9.7339°E)
Time: 16:26:47
(UTC+01:00)

ISS - Pass Details

Date: 11 November 2017
Orbit: 402 x 407 km, 51.6° (Epoch: 22 November)

Event Time Altitude Azimuth Distance (km) Brightness Sun altitude
Exits shadow 06:42:31 11° 272° (W) 1,427 -1.7 -8.2°
Maximum altitude 06:45:27 35° 205° (SSW) 667 -2.8 -7.8°
Drops below altitude 10° 06:48:28 10° 138° (SE) 1,453 0.1 -7.4°
Sets 06:50:38 0° 129° (SE) 2,310 1.6 -7.1°
